Skip Page Navigation
NASA JPL Caltech
NASA Logo - Jet Propulsion Laboratory + View the NASA Portal
+ Near-Earth Object (NEO) Program
Search JPL
JPL Home Earth Solar System Stars & Galaxies Technology
JPL Solar System Dynamics
BODIES ORBITS EPHEMERIDES TOOLS PHYSICAL DATA DISCOVERY FAQ SITE MAP
JPL Small-Body Database Browser
Search: [ help ]  
4448 Phildavis (1986 EO)
Classification: Main-belt Asteroid          SPK-ID: 2004448
Ephemeris | Orbit Diagram | Orbital Elements | Physical Parameters | Discovery Circumstances ]

[ hide orbit diagram ]
Orbit Diagram
Note: Make sure you have Java enabled on your browser to see the applet. This applet is provided as a 3D orbit visualization tool. The applet was implemented using 2-body methods, and hence should not be used for determining accurate long-term trajectories (over several years or decades) or planetary encounter circumstances. For accurate long-term ephemerides, please instead use our Horizons system.
Orbit Viewer

Additional Notes: the orbits shown in the applet are color coded. The planets are white lines, and the asteroid/comet is a blue line. The bright white line indicates the portion of the orbit that is above the ecliptic plane, and the darker portion is below the ecliptic plane. Likewise for the asteroid/comet orbit, the light blue indicates the portion above the ecliptic plane, and the dark blue the portion below the ecliptic plane.

Orbit Viewer applet originally written and kindly provided by Osamu Ajiki (AstroArts), and further modified by Ron Baalke (JPL).


Orbital Elements at Epoch 2456400.5 (2013-Apr-18.0) TDB
Reference: MPO250249 (heliocentric ecliptic J2000)
 Element Value Uncertainty (1-sigma)   Units 
e 0.0841030 n/a  
a 2.5470251 n/a AU
q 2.3328126 n/a AU
i 16.81509 n/a deg
node 83.34660 n/a deg
peri 46.45220 n/a deg
M 279.31982 n/a deg
tp 2456733.2458191
(2014-Mar-16.74581910)
n/a JED
period 1484.7326182
4.06
n/a
n/a
d
yr
n 0.24246790 n/a deg/d
Q 2.7612376 n/a AU
  Orbit Determination Parameters
   # obs. used (total)      725  
   first obs. used      1964-??-??  
   last obs. used      2013-01-08  
   # oppositions      18  
   planetary ephem.      DE403  
   condition code      0  
   fit RMS      0.48  
   data source      MPC:mpn  
   producer      MPCLINUX  

Additional Information
 T_jup = 3.378 

Ephemeris | Orbit Diagram | Orbital Elements | Physical Parameters | Discovery Circumstances ]

Physical Parameter Table
Parameter Symbol Value Units Sigma Reference Notes
absolute magnitude H 12.0 mag n/a PDS3 (MPC 28111)  
rotation period rot_per 14.914 h n/a Asteroid Lightcurve DataBase (Rev. 2013-May-01) Published Reference List:
[Gross, J. (2003) Minor Planet Bul. 30, 44-46.]

4448 Phildavis (1986 EO)          Discovered 1986-Mar-05 by Shoemaker, C. S. at Palomar (675)
Reference: DISCOVERY.DBLast Updated: 2003-08-29

Alternate Designations
 1986 EO = 1964 WH = 1972 XA2 = 1976 YB4 
Ephemeris | Orbit Diagram | Orbital Elements | Physical Parameters | Discovery Circumstances ]
ABOUT SSD CREDITS/AWARDS PRIVACY/COPYRIGHT GLOSSARY LINKS
FirstGov 2013-Jun-20 12:23 UT
(server date/time)  
NASA Home Page
Site Manager:   Donald K. Yeomans
Webmaster  Alan B. Chamberlin